{"data":{"norad_id":61733,"epoch":"2026-05-25T05:02:38.473728Z","epoch_age_seconds":63713,"freshness":"FRESH","line1":"1 61733U 24198A   26145.21016752 -.00000252  00000+0  00000+0 0  9994","line2":"2 61733   0.0142 287.0207 0000345 208.5147 326.9965  1.00271779  5698","mean_motion":1.00271779,"eccentricity":3.45e-5,"inclination_deg":0.0142,"raan_deg":287.0207,"arg_perigee_deg":208.5147,"mean_anomaly_deg":326.9965,"bstar":0,"rev_number":569,"period_min":1436.0969899617,"perigee_km":35785.141959898,"apogee_km":35788.051326519,"semimajor_km":42164.733643209,"source":"CELESTRAK","updated_at":"2026-05-25T13:38:14.148018Z"}}